Location: Gorze? G�rny
(49.8500°N, 19.5000°E)
Time: 03:50:13
(UTC+00:00)

USA 215 - Pass Details

Date: 13 May 2021
Orbit: 1100 x 1107 km, 123.0° (Epoch: 14 June)

Event Time Altitude Azimuth Distance (km) Brightness Sun altitude
Exits shadow 23:30:09 19° 144° (SE) 2,377 4.6 -20.6°
Maximum altitude 23:35:01 61° 220° (SW) 1,240 3.2 -20.4°
Drops below altitude 10° 23:41:29 10° 300° (WNW) 2,964 5.7 -20.1°
Sets 23:44:01 0° 304° (NW) 3,925 6.4 -20.0°
